Racine, WI

9:23 PM CDT on September 28, 2016 (GMT -0500)
Batten

Weather History for KRAC - October, 2013

Change the Weather History Date:

Tuesday, October 15, 2013

  Actual Average Record
Temperature  
Mean Temperature 54 °F -  
Max Temperature 61 °F 60 °F 84 °F (1968)
Min Temperature 48 °F 44 °F 28 °F (1972)
Degree Days  
Heating Degree Days 11    
Growing Degree Days 4 (Base 50)    
Moisture  
Dew Point 53 °F    
Average Humidity 88    
Maximum Humidity 100    
Minimum Humidity 70    
Precipitation  
Precipitation 0.09 in - - ()
Sea Level Pressure  
Sea Level Pressure 29.87 in    
Wind  
Wind Speed 9 mph (South)    
Max Wind Speed 13 mph    
Max Gust Speed 21 mph    
Visibility 5 miles    
Events Rain    
Averages and records for this station are not official NWS values.
T = Trace of Precipitation, MM = Missing Value Source: NWS Daily Summary

Daily Weather History Graph

Daily Weather History Graph

Search for Another Location

Airport or City:

Trip Planner

Search our weather history database for the weather conditions in past years. The results will help you decide how hot, cold, wet, or windy it might be!

Date:

Astronomy

Oct. 15, 2013 Rise Set
Actual Time 7:04 AM CDT 6:08 PM CDT
Civil Twilight 6:36 AM CDT 6:36 PM CDT
Nautical Twilight 6:03 AM CDT 7:09 PM CDT
Astronomical Twilight 5:30 AM CDT 7:42 PM CDT
Moon 4:17 PM CDT (10/15) 3:22 AM CDT (10/15)
Length of Visible Light 12h 00m
Length of Day
11h 03m
Waxing Gibbous, 88% of the Moon is Illuminated
Oct 15
Waxing Gibbous
Oct 18
Full
Oct 26
Last Quarter
Nov 3
New
Nov 9
First Quarter

Hourly Weather History & Observations

Time (CDT) Temp. Dew Point Humidity Pressure Visibility Wind Dir Wind Speed Gust Speed Precip Events Conditions
12:53 AM 57.9 °F 48.0 °F 70% 30.15 in 10.0 mi SE 11.5 mph - N/A   Clear
1:53 AM 57.9 °F 48.9 °F 72% 30.13 in 10.0 mi SSE 11.5 mph 20.7 mph N/A   Clear
2:53 AM 57.9 °F 50.0 °F 75% 30.10 in 10.0 mi SE 12.7 mph 20.7 mph N/A   Clear
3:53 AM 57.0 °F 50.0 °F 77% 30.08 in 10.0 mi SSE 11.5 mph 19.6 mph N/A   Clear
4:53 AM 57.0 °F 50.0 °F 77% 30.06 in 10.0 mi SSE 11.5 mph - N/A   Clear
5:53 AM 55.9 °F 51.1 °F 84% 30.04 in 10.0 mi SSE 10.4 mph - N/A   Clear
6:53 AM 55.9 °F 50.0 °F 80% 30.03 in 10.0 mi SSE 10.4 mph - N/A   Clear
7:53 AM 55.9 °F 50.0 °F 80% 29.99 in 10.0 mi SSE 10.4 mph - N/A   Partly Cloudy
8:53 AM 57.0 °F 51.1 °F 81% 29.98 in 10.0 mi SSE 12.7 mph - N/A   Mostly Cloudy
9:53 AM 57.0 °F 52.0 °F 83% 29.95 in 10.0 mi South 9.2 mph - 0.00 in Rain Light Rain
10:53 AM 57.0 °F 51.1 °F 81% 29.92 in 10.0 mi South 11.5 mph - 0.00 in   Overcast
11:53 AM 55.9 °F 52.0 °F 87% 29.89 in 2.5 mi SSE 10.4 mph - 0.01 in Rain Light Rain
12:03 PM 55.4 °F 51.8 °F 88% 29.89 in 5.0 mi South 10.4 mph - 0.00 in Rain Light Rain
12:53 PM 55.9 °F 53.1 °F 90% 29.86 in 3.0 mi South 9.2 mph - 0.00 in Rain Light Rain
1:05 PM 55.4 °F 53.6 °F 94% 29.85 in 2.5 mi South 8.1 mph - 0.00 in Rain Light Rain
1:16 PM 55.4 °F 53.6 °F 94% 29.84 in 3.0 mi South 8.1 mph - 0.00 in Rain Light Rain
1:27 PM 55.4 °F 53.6 °F 94% 29.84 in 2.0 mi South 8.1 mph - 0.00 in Rain Light Rain
1:38 PM 55.4 °F 53.6 °F 94% 29.83 in 1.5 mi South 6.9 mph - 0.02 in Rain Light Rain
1:53 PM 55.9 °F 54.0 °F 93% 29.82 in 1.5 mi South 6.9 mph - 0.04 in Rain Light Rain
2:10 PM 55.4 °F 55.4 °F 100% 29.82 in 1.2 mi South 5.8 mph - 0.01 in Rain Light Rain
2:18 PM 55.4 °F 55.4 °F 100% 29.81 in 1.8 mi South 4.6 mph - 0.02 in Rain Light Rain
2:31 PM 55.4 °F 55.4 °F 100% 29.81 in 1.5 mi South 6.9 mph - 0.02 in Rain Light Rain
2:53 PM 57.0 °F 55.9 °F 96% 29.80 in 1.2 mi South 6.9 mph - 0.02 in   Overcast
3:20 PM 57.2 °F 55.4 °F 94% 29.79 in 1.2 mi South 4.6 mph - N/A   Overcast
3:42 PM 57.2 °F 57.2 °F 100% 29.79 in 0.8 mi SSE 3.5 mph - 0.01 in Rain Light Rain
3:53 PM 59.0 °F 57.0 °F 93% 29.79 in 0.8 mi South 3.5 mph - 0.01 in Rain Light Rain
4:05 PM 59.0 °F 57.2 °F 94% 29.78 in 1.0 mi SSE 3.5 mph - 0.00 in Rain Light Rain
4:49 PM 60.8 °F 59.0 °F 94% 29.78 in 2.0 mi SSE 3.5 mph - 0.00 in   Overcast
4:53 PM 60.1 °F 59.0 °F 96% 29.77 in 2.0 mi SSE 4.6 mph - 0.00 in   Overcast
5:53 PM 60.1 °F 57.9 °F 93% 29.77 in 2.0 mi Calm Calm - N/A   Overcast
6:03 PM 57.2 °F 55.4 °F 94% 29.77 in 1.8 mi East 3.5 mph - N/A   Overcast
6:14 PM 57.2 °F 55.4 °F 94% 29.77 in 2.0 mi SE 5.8 mph - N/A   Overcast
6:25 PM 57.2 °F 55.4 °F 94% 29.77 in 2.5 mi SSE 6.9 mph - N/A   Overcast
6:36 PM 57.2 °F 55.4 °F 94% 29.77 in 2.0 mi South 3.5 mph - N/A   Overcast
6:53 PM 59.0 °F 57.0 °F 93% 29.78 in 2.5 mi WSW 5.8 mph - N/A   Overcast
6:56 PM 60.8 °F 57.2 °F 88% 29.78 in 3.0 mi Variable 3.5 mph - N/A   Overcast
7:21 PM 60.8 °F 55.4 °F 82% 29.79 in 9.0 mi West 11.5 mph 17.3 mph N/A   Mostly Cloudy
7:53 PM 59.0 °F 52.0 °F 78% 29.80 in 10.0 mi West 9.2 mph - N/A   Clear
8:53 PM 54.0 °F 46.0 °F 75% 29.82 in 10.0 mi West 10.4 mph 18.4 mph 0.01 in   Clear
9:53 PM 51.1 °F 45.0 °F 80% 29.83 in 10.0 mi WSW 3.5 mph - N/A   Clear
10:53 PM 48.9 °F 44.1 °F 83% 29.83 in 10.0 mi SW 3.5 mph - N/A   Clear
11:53 PM 48.0 °F 43.0 °F 83% 29.83 in 10.0 mi Calm Calm - N/A   Clear